Location: Big Meadow
(36.7100°N, 118.8650°W)
Time: 17:11:25
(UTC-07:00)

Daily predictions for brighter satellites

Satellite Brightness Start Highest point End
(mag) Time Altitude Azimuth Time Altitude Azimuth Time Altitude Azimuth
Meteor 2-21 Rocket 4.5 19:46:06 10° S 19:52:17 80° E 19:58:28 10° N
Cosmos 1821 Rocket 3.9 19:46:21 10° S 19:52:26 79° E 19:58:32 10° N
Spot 2 Rocket 3.5 19:50:33 10° SSE 19:55:39 85° ENE 20:00:45 10° NNW
Cosmos 1605 Rocket 4.3 19:49:40 10° SSE 19:55:40 47° E 20:01:38 10° NNE
Cosmos 1697 Rocket 3.5 19:53:43 10° SSE 19:58:30 29° ESE 20:03:17 10° NE
Cosmos 2208 Rocket 4.1 19:53:30 10° SSW 19:58:49 88° WNW 20:04:14 10° NNE
METEOR-M 4.2 19:55:33 10° SSE 20:00:54 90° W 20:06:17 10° NNW
NOSS 7 (H) 4.4 19:59:41 10° SW 20:03:04 82° NW 20:06:25 10° NNE
Meteor 2-15 4.4 19:57:20 10° N 20:03:23 71° E 20:09:25 10° SSE
Iridium 4 Rocket 4.4 20:00:28 10° NNE 20:04:27 24° E 20:08:09 10° SE
Cosmos 1892 Rocket 3.6 19:59:57 10° N 20:04:27 89° WSW 20:08:55 10° S
Cosmos 1455 Rocket 3.0 20:00:47 10° S 20:05:04 76° E 20:09:26 10° N
Cosmos 2278 3.9 20:02:52 10° SSW 20:08:32 78° WNW 20:14:15 10° NNE
Meteor 2-15 Rocket 4.4 20:03:58 10° N 20:10:02 68° E 20:16:03 10° SSE
Cosmos 1602 Rocket 4.2 20:08:45 10° N 20:12:52 36° ENE 20:16:55 10° SE
H-2A R/B 3.1 20:11:31 10° SSE 20:15:13 45° ENE 20:18:59 10° N
Cosmos 220 Rocket 4.5 20:12:16 10° N 20:16:16 40° ENE 20:19:52 12° SE
Resurs 1-3 3.9 20:14:35 10° S 20:18:56 70° WSW 20:23:20 10° NNW
Lacrosse 5 3.1 20:16:16 10° NNW 20:20:36 28° NE 20:24:05 14° E
Cosmos 1980 Rocket 3.0 20:17:22 10° SSE 20:22:04 27° ESE 20:26:48 10° NE
Cosmos 2369 4.2 20:17:29 10° SSW 20:23:06 66° WNW 20:28:47 10° NNE
Cosmos 1975 2.9 20:19:58 10° S 20:23:58 58° E 20:28:01 10° NNE
Cosmos 2123 Rocket 4.0 20:22:15 10° N 20:28:26 89° W 20:34:37 10° S
CZ-3C R/B 4.1 19:15:10 10° WSW 20:30:10 44° SSW 20:38:26 14° SE
ERS-1 Rocket 3.9 20:28:22 17° ESE 20:31:20 30° ENE 20:35:39 10° N
Lacrosse 5 rocket 0.9 20:27:40 10° NW 20:31:23 87° NE 20:33:44 20° SE
Cosmos 2150 Rocket 4.5 20:28:59 10° N 20:33:50 40° ENE 20:37:00 20° SE
Cosmos 1459 Rocket 4.4 20:29:04 10° SSE 20:34:31 36° E 20:40:01 10° NNE
CZ-2D R/B 3.3 20:33:52 10° S 20:37:43 82° W 20:41:38 10° NNW
FENGYUN 3A 3.7 20:33:47 10° S 20:39:08 82° WSW 20:44:31 10° NNW
EO 1 Delta rocket 4.2 20:35:18 10° N 20:40:06 81° W 20:45:49 10° SSW
CZ-4 DEB 3.7 20:40:10 28° E 20:40:30 29° ENE 20:43:16 10° NNE
Cosmos 1656 3.7 20:36:05 10° SSW 20:41:43 83° WNW 20:47:18 10° NNE
Cosmos 1763 Rocket 4.1 20:38:29 10° SSE 20:42:56 31° E 20:47:21 10° NE
Resurs 01 Rocket 3.8 20:39:55 10° SSW 20:43:40 27° W 20:47:28 10° NW
Cosmos 1500 3.1 20:40:36 10° S 20:44:18 64° E 20:48:02 10° NNE
Cosmos 1898 Rocket 3.5 20:44:32 10° N 20:49:48 62° ENE 20:52:53 24° SE
DELTA 2 R/B (1) 3.5 20:45:19 10° WNW 20:50:54 83° SSW 20:53:52 29° ESE
Cosmos 2227 Rocket 3.0 20:48:47 10° NNW 20:54:14 49° WSW 20:59:39 10° S
Cosmos 2322 Rocket 4.1 20:58:39 13° ENE 20:58:39 13° ENE 20:59:33 10° NE
Cosmos 1340 3.9 20:52:31 10° NNE 20:55:15 25° ENE 20:55:15 25° ENE
USA 186 2.7 20:55:34 15° S 20:57:56 43° W 21:00:45 10° NNW
OAO 2 Rocket 3.2 20:54:42 10° W 20:59:42 74° S 21:01:47 35° ESE
Cosmos 468 Rocket 4.0 20:55:22 10° SSW 21:00:29 79° WNW 21:05:38 10° NNE
OTV 4 2.1 20:59:03 10° W 21:01:31 24° SSW 21:01:32 24° SSW
Cosmos 1939 Rocket 3.3 21:00:58 41° ESE 21:01:43 46° ENE 21:05:43 10° N
ALOS 3.6 20:59:36 10° SSW 21:03:57 39° W 21:08:20 10° NNW
Cosmos 841 Rocket 3.7 21:03:13 21° SSE 21:06:21 46° ESE 21:11:20 10° NNE
Cosmos 1726 Rocket 4.2 21:07:22 35° ENE 21:07:22 35° ENE 21:10:53 10° NNE
Cosmos 2297 Rocket 2.9 21:03:50 10° NNW 21:09:19 52° WSW 21:13:57 14° S
Cosmos 2360 4.3 21:04:24 10° S 21:09:54 51° ESE 21:15:26 10° NNE
Cosmos 1515 4.2 21:06:52 10° NNW 21:10:39 58° W 21:12:43 24° SSW
Cosmos 1814 Rocket 4.2 21:06:54 10° SSW 21:12:13 74° WNW 21:17:33 10° NNE
Cosmos 1802 Rocket 4.0 21:06:40 10° S 21:12:59 68° E 21:19:22 10° NNE
Cosmos 972 Rocket 4.5 21:11:54 10° NNW 21:18:02 83° ENE 21:21:31 31° SSE
Cosmos 2016 Rocket 3.9 21:19:32 27° SSE 21:22:56 67° E 21:29:05 10° NNE
Tiangong 1 2.4 21:20:26 10° WNW 21:22:45 36° NNW 21:22:45 36° NNW
Cosmos 1825 Rocket 3.4 21:19:17 10° N 21:23:42 74° E 21:24:00 70° ESE
Cosmos 1743 2.9 21:23:18 46° SSW 21:24:20 73° W 21:28:15 10° N
ASTEX 1 3.7 21:20:41 10° NNE 21:25:07 47° ENE 21:25:07 47° ENE
RESURS DK-1 2.3 21:27:18 10° NNW 21:31:28 76° WSW 21:31:31 75° WSW
H-2A R/B 2.3 21:35:03 56° NNE 21:35:03 56° NNE 21:38:28 10° N
Cosmos 1953 Rocket 3.6 21:30:17 10° N 21:34:20 65° NE 21:34:20 65° NE
Cosmos 2173 Rocket 4.2 21:28:48 10° SSW 21:35:08 70° W 21:41:28 10° N
Cosmos 1697 Rocket 4.3 21:37:10 10° SW 21:42:18 35° WNW 21:47:26 10° N
Envisat 3.2 21:43:51 51° SSW 21:44:58 66° WSW 21:50:02 10° NNW
Cosmos 967 Rocket 4.3 21:43:42 10° NNW 21:50:05 83° ENE 21:50:51 70° SE
Cosmos 1937 Rocket 4.2 21:46:07 10° NNW 21:51:11 49° WSW 21:52:28 40° SW
Cosmos 1864 Rocket 4.3 21:50:50 70° SE 21:51:16 74° E 21:57:23 10° N
SL-16 R/B 3.2 21:54:57 33° NE 21:54:57 33° NE 21:58:07 10° NNE
Cosmos 1758 Rocket 4.2 21:48:57 10° N 21:52:16 51° NNW 21:52:16 51° NNW
ARGOS 3.7 21:57:55 45° NE 21:57:55 45° NE 22:02:07 10° N
deb Chang Zheng 4 4.3 21:54:40 10° N 21:58:59 51° WNW 21:59:15 50° W
Cosmos 990 Rocket 4.5 21:56:45 10° NNW 22:01:51 53° WSW 22:02:09 53° WSW
Lacrosse 5 2.6 21:58:53 10° NW 22:03:17 47° WSW 22:03:17 47° WSW
Tsikada Rocket 3.9 21:57:38 10° N 22:04:05 78° E 22:04:10 78° E
Cosmos 1980 Rocket 3.6 22:00:39 10° SW 22:05:51 37° WNW 22:11:07 10° N
H-2A R/B 3.7 22:08:08 21° NNE 22:08:08 21° NNE 22:10:14 10° N
SPOT 5 3.3 22:07:52 60° WNW 22:07:52 60° WNW 22:12:11 10° NNW
MetOp-B 4.3 22:09:33 71° WNW 22:09:33 71° WNW 22:14:31 10° NNW
Cosmos 2058 Rocket 4.5 22:18:14 37° NW 22:18:14 37° NW 22:21:35 10° N
Cosmos 1725 Rocket 4.4 22:22:33 54° WSW 22:23:28 59° W 22:29:37 10° N
SPOT 1/Viking Rocket 4.3 22:26:33 48° NNW 22:26:33 48° NNW 22:30:20 10° NNW
Terra 4.0 22:33:41 20° N 22:33:41 20° N 22:35:14 10° N
Cosmos 2263 Rocket 3.4 22:29:12 10° NNW 22:32:32 34° N 22:32:32 34° N
Cosmos 2322 Rocket 3.1 22:40:22 44° NNW 22:40:22 44° NNW 22:44:44 10° N
BREEZE-M DEB (TANK) 4.4 22:34:35 10° W 22:42:59 36° NNW 22:43:19 35° NNW
USA 215 3.9 22:53:25 46° NNE 22:53:25 46° NNE 22:58:56 10° NW
SL-16 R/B 4.5 23:36:44 19° WNW 23:37:03 19° NW 23:40:59 10° N
Cosmos 2360 Rocket 4.5 23:53:36 19° N 23:53:36 19° N 23:55:24 10° N
